Time,TemperatureF,DewpointF,PressureIn,WindDirection,WindDirectionDegrees,WindSpeedMPH,WindSpeedGustMPH,Humidity,HourlyPrecipIn,Conditions,Clouds,dailyrainin,SoftwareType,DateUTC
2014-01-20 00:00:00,57.8,49.9,30.17,WSW,246,1.0,2.0,75,0.00,,,0.00,Wunderground v.1.15,2014-01-20 05:00:00,
2014-01-20 00:05:00,57.7,50.2,30.17,WSW,242,1.0,2.0,76,0.00,,,0.00,Wunderground v.1.15,2014-01-20 05:05:00,
2014-01-20 00:10:00,57.6,50.1,30.17,WSW,241,1.0,1.0,76,0.00,,,0.00,Wunderground v.1.15,2014-01-20 05:10:00,
2014-01-20 00:15:00,57.4,49.9,30.17,SW,235,1.0,2.0,76,0.00,,,0.00,Wunderground v.1.15,2014-01-20 05:15:00,
2014-01-20 00:20:00,57.2,50.1,30.17,SW,234,1.0,1.0,77,0.00,,,0.00,Wunderground v.1.15,2014-01-20 05:20:00,
2014-01-20 00:30:00,56.9,49.8,30.16,SW,234,1.0,1.0,77,0.00,,,0.00,Wunderground v.1.15,2014-01-20 05:30:00,
2014-01-20 00:35:00,56.7,49.9,30.16,SW,233,1.0,2.0,78,0.00,,,0.00,Wunderground v.1.15,2014-01-20 05:35:00,
2014-01-20 00:40:00,56.6,49.8,30.16,SW,233,1.0,1.0,78,0.00,,,0.00,Wunderground v.1.15,2014-01-20 05:40:00,
2014-01-20 00:45:00,56.4,50.0,30.16,SW,233,0.0,2.0,79,0.00,,,0.00,Wunderground v.1.15,2014-01-20 05:45:00,
2014-01-20 00:50:00,56.3,49.9,30.16,SW,233,0.0,2.0,79,0.00,,,0.00,Wunderground v.1.15,2014-01-20 05:50:00,
2014-01-20 01:00:00,56.2,50.1,30.16,SW,233,0.0,0.0,80,0.00,,,0.00,Wunderground v.1.15,2014-01-20 06:00:00,
2014-01-20 01:10:00,56.1,50.3,30.16,SW,233,0.0,0.0,81,0.00,,,0.00,Wunderground v.1.15,2014-01-20 06:10:00,
2014-01-20 01:15:00,56.1,50.3,30.16,SW,233,0.0,0.0,81,0.00,,,0.00,Wunderground v.1.15,2014-01-20 06:15:00,
2014-01-20 01:20:00,56.1,50.7,30.16,SW,233,0.0,0.0,82,0.00,,,0.00,Wunderground v.1.15,2014-01-20 06:20:00,
2014-01-20 01:25:00,56.2,50.8,30.16,SW,233,0.0,0.0,82,0.00,,,0.00,Wunderground v.1.15,2014-01-20 06:25:00,
2014-01-20 01:35:00,56.3,50.9,30.17,SW,233,0.0,0.0,82,0.00,,,0.00,Wunderground v.1.15,2014-01-20 06:35:00,
2014-01-20 01:40:00,56.3,50.9,30.16,SW,233,0.0,0.0,82,0.00,,,0.00,Wunderground v.1.15,2014-01-20 06:40:00,
2014-01-20 01:45:00,56.3,51.2,30.16,SW,233,0.0,0.0,83,0.00,,,0.00,Wunderground v.1.15,2014-01-20 06:45:00,
2014-01-20 01:50:00,56.3,51.2,30.16,SW,233,0.0,0.0,83,0.00,,,0.00,Wunderground v.1.15,2014-01-20 06:50:00,
2014-01-20 01:55:00,56.3,51.2,30.16,SW,233,0.0,0.0,83,0.00,,,0.00,Wunderground v.1.15,2014-01-20 06:55:00,
2014-01-20 02:00:00,56.3,51.2,30.16,SW,233,0.0,1.0,83,0.00,,,0.00,Wunderground v.1.15,2014-01-20 07:00:00,
2014-01-20 02:10:00,56.7,51.9,30.15,SW,233,0.0,0.0,84,0.00,,,0.00,Wunderground v.1.15,2014-01-20 07:10:00,
2014-01-20 02:20:00,57.1,52.6,30.16,SW,233,1.0,2.0,85,0.00,,,0.00,Wunderground v.1.15,2014-01-20 07:20:00,
2014-01-20 02:25:00,57.3,52.5,30.15,SW,232,1.0,2.0,84,0.00,,,0.00,Wunderground v.1.15,2014-01-20 07:25:00,
2014-01-20 02:30:00,57.3,52.5,30.15,SW,231,1.0,1.0,84,0.00,,,0.00,Wunderground v.1.15,2014-01-20 07:30:00,
2014-01-20 02:35:00,57.3,52.5,30.15,SW,230,1.0,1.0,84,0.00,,,0.00,Wunderground v.1.15,2014-01-20 07:35:00,
2014-01-20 02:40:00,57.3,52.5,30.15,SW,231,1.0,1.0,84,0.00,,,0.00,Wunderground v.1.15,2014-01-20 07:40:00,
2014-01-20 02:45:00,57.3,52.5,30.15,SW,231,0.0,1.0,84,0.00,,,0.00,Wunderground v.1.15,2014-01-20 07:45:00,
2014-01-20 02:50:00,57.3,52.5,30.15,SW,231,0.0,0.0,84,0.00,,,0.00,Wunderground v.1.15,2014-01-20 07:50:00,
2014-01-20 02:55:00,57.3,52.8,30.14,SW,230,0.0,0.0,85,0.00,,,0.00,Wunderground v.1.15,2014-01-20 07:55:00,
2014-01-20 03:00:00,57.2,52.7,30.14,SW,230,0.0,0.0,85,0.00,,,0.00,Wunderground v.1.15,2014-01-20 08:00:00,
2014-01-20 03:10:00,57.1,52.6,30.14,SW,230,0.0,0.0,85,0.00,,,0.00,Wunderground v.1.15,2014-01-20 08:10:00,
2014-01-20 03:15:00,57.0,52.5,30.14,SW,230,0.0,0.0,85,0.00,,,0.00,Wunderground v.1.15,2014-01-20 08:15:00,
2014-01-20 03:20:00,56.9,52.4,30.15,SW,230,0.0,0.0,85,0.00,,,0.00,Wunderground v.1.15,2014-01-20 08:20:00,
2014-01-20 03:25:00,56.9,52.4,30.15,SW,230,0.0,0.0,85,0.00,,,0.00,Wunderground v.1.15,2014-01-20 08:25:00,
2014-01-20 03:30:00,56.8,52.3,30.15,SW,230,0.0,0.0,85,0.00,,,0.00,Wunderground v.1.15,2014-01-20 08:30:00,
2014-01-20 03:35:00,56.6,52.1,30.15,SW,230,0.0,0.0,85,0.00,,,0.00,Wunderground v.1.15,2014-01-20 08:35:00,
2014-01-20 03:45:00,56.5,52.4,30.15,SW,230,0.0,0.0,86,0.00,,,0.00,Wunderground v.1.15,2014-01-20 08:45:00,
2014-01-20 03:50:00,56.4,52.3,30.15,SW,230,0.0,0.0,86,0.00,,,0.00,Wunderground v.1.15,2014-01-20 08:50:00,
2014-01-20 03:55:00,56.3,52.2,30.15,SW,230,0.0,0.0,86,0.00,,,0.00,Wunderground v.1.15,2014-01-20 08:55:00,
2014-01-20 04:00:00,56.3,52.2,30.15,SW,230,0.0,0.0,86,0.00,,,0.00,Wunderground v.1.15,2014-01-20 09:00:00,
2014-01-20 04:10:00,56.2,52.1,30.15,SW,230,0.0,0.0,86,0.00,,,0.00,Wunderground v.1.15,2014-01-20 09:10:00,
2014-01-20 04:20:00,56.6,52.8,30.15,SW,230,0.0,0.0,87,0.00,,,0.00,Wunderground v.1.15,2014-01-20 09:20:00,
2014-01-20 04:25:00,56.8,53.0,30.15,SW,230,0.0,0.0,87,0.00,,,0.00,Wunderground v.1.15,2014-01-20 09:25:00,
2014-01-20 04:30:00,57.0,53.2,30.15,SW,230,0.0,0.0,87,0.00,,,0.00,Wunderground v.1.15,2014-01-20 09:30:00,
2014-01-20 04:35:00,57.3,53.5,30.15,SW,230,0.0,0.0,87,0.00,,,0.00,Wunderground v.1.15,2014-01-20 09:35:00,
2014-01-20 04:40:00,57.6,53.8,30.16,SW,230,0.0,0.0,87,0.00,,,0.00,Wunderground v.1.15,2014-01-20 09:40:00,
2014-01-20 04:45:00,57.7,53.9,30.16,SW,230,1.0,1.0,87,0.00,,,0.00,Wunderground v.1.15,2014-01-20 09:45:00,
2014-01-20 04:55:00,57.6,53.4,30.16,SW,230,0.0,1.0,86,0.00,,,0.00,Wunderground v.1.15,2014-01-20 09:55:00,
2014-01-20 05:00:00,57.6,53.4,30.16,SW,230,0.0,0.0,86,0.00,,,0.00,Wunderground v.1.15,2014-01-20 10:00:00,
2014-01-20 05:10:00,57.4,53.2,30.16,SW,230,0.0,0.0,86,0.00,,,0.00,Wunderground v.1.15,2014-01-20 10:10:00,
2014-01-20 05:15:00,57.4,53.2,30.16,SW,230,0.0,0.0,86,0.00,,,0.00,Wunderground v.1.15,2014-01-20 10:15:00,
2014-01-20 05:20:00,57.4,53.2,30.16,SW,230,0.0,0.0,86,0.00,,,0.00,Wunderground v.1.15,2014-01-20 10:20:00,
2014-01-20 05:30:00,57.7,53.5,30.16,SW,230,0.0,0.0,86,0.00,,,0.00,Wunderground v.1.15,2014-01-20 10:30:00,
2014-01-20 05:35:00,57.8,53.6,30.16,SW,230,0.0,0.0,86,0.00,,,0.00,Wunderground v.1.15,2014-01-20 10:35:00,
2014-01-20 05:40:00,57.8,53.6,30.16,SW,230,0.0,0.0,86,0.00,,,0.00,Wunderground v.1.15,2014-01-20 10:40:00,
2014-01-20 05:45:00,57.7,53.5,30.16,SW,230,0.0,0.0,86,0.00,,,0.00,Wunderground v.1.15,2014-01-20 10:45:00,
2014-01-20 05:50:00,57.7,53.5,30.17,SW,230,0.0,0.0,86,0.00,,,0.00,Wunderground v.1.15,2014-01-20 10:50:00,
2014-01-20 06:00:00,57.8,53.6,30.17,SW,230,0.0,0.0,86,0.00,,,0.00,Wunderground v.1.15,2014-01-20 11:00:00,
2014-01-20 06:10:00,57.6,53.4,30.17,SW,230,0.0,0.0,86,0.00,,,0.00,Wunderground v.1.15,2014-01-20 11:10:00,
2014-01-20 06:15:00,57.5,53.3,30.17,SW,230,0.0,0.0,86,0.00,,,0.00,Wunderground v.1.15,2014-01-20 11:15:00,
2014-01-20 06:20:00,57.3,53.1,30.17,SW,230,0.0,0.0,86,0.00,,,0.00,Wunderground v.1.15,2014-01-20 11:20:00,
2014-01-20 06:25:00,57.2,52.7,30.17,SW,230,0.0,0.0,85,0.00,,,0.00,Wunderground v.1.15,2014-01-20 11:25:00,
2014-01-20 06:30:00,57.1,53.0,30.18,SW,230,0.0,0.0,86,0.00,,,0.00,Wunderground v.1.15,2014-01-20 11:30:00,
2014-01-20 06:40:00,56.9,52.4,30.18,SW,230,0.0,0.0,85,0.00,,,0.00,Wunderground v.1.15,2014-01-20 11:40:00,
2014-01-20 06:45:00,56.7,52.6,30.18,SW,230,0.0,0.0,86,0.00,,,0.00,Wunderground v.1.15,2014-01-20 11:45:00,
2014-01-20 06:50:00,56.6,52.5,30.18,SW,230,0.0,0.0,86,0.00,,,0.00,Wunderground v.1.15,2014-01-20 11:50:00,
2014-01-20 06:55:00,56.2,51.7,30.18,SW,230,0.0,0.0,85,0.00,,,0.00,Wunderground v.1.15,2014-01-20 11:55:00,
2014-01-20 07:00:00,56.0,51.9,30.18,SW,230,0.0,0.0,86,0.00,,,0.00,Wunderground v.1.15,2014-01-20 12:00:00,
2014-01-20 07:10:00,55.7,51.6,30.19,SW,230,0.0,0.0,86,0.00,,,0.00,Wunderground v.1.15,2014-01-20 12:10:00,
2014-01-20 07:15:00,55.7,51.6,30.19,SW,230,0.0,0.0,86,0.00,,,0.00,Wunderground v.1.15,2014-01-20 12:15:00,
2014-01-20 07:20:00,55.7,51.6,30.19,SW,230,0.0,0.0,86,0.00,,,0.00,Wunderground v.1.15,2014-01-20 12:20:00,
2014-01-20 07:25:00,55.7,51.6,30.18,SW,230,0.0,0.0,86,0.00,,,0.00,Wunderground v.1.15,2014-01-20 12:25:00,
2014-01-20 07:30:00,55.7,51.9,30.19,SW,230,0.0,0.0,87,0.00,,,0.00,Wunderground v.1.15,2014-01-20 12:30:00,
2014-01-20 07:40:00,55.8,52.0,30.19,SW,230,0.0,0.0,87,0.00,,,0.00,Wunderground v.1.15,2014-01-20 12:40:00,
2014-01-20 07:45:00,56.0,52.2,30.19,SW,230,0.0,0.0,87,0.00,,,0.00,Wunderground v.1.15,2014-01-20 12:45:00,
2014-01-20 07:50:00,56.0,52.2,30.19,SW,230,0.0,0.0,87,0.00,,,0.00,Wunderground v.1.15,2014-01-20 12:50:00,
2014-01-20 07:55:00,55.9,52.1,30.19,SW,230,0.0,0.0,87,0.00,,,0.00,Wunderground v.1.15,2014-01-20 12:55:00,
2014-01-20 08:05:00,56.1,52.3,30.19,SW,230,0.0,0.0,87,0.00,,,0.00,Wunderground v.1.15,2014-01-20 13:05:00,
2014-01-20 08:15:00,56.7,53.2,30.19,SW,230,0.0,0.0,88,0.00,,,0.00,Wunderground v.1.15,2014-01-20 13:15:00,
2014-01-20 08:20:00,57.4,53.9,30.20,SW,230,0.0,0.0,88,0.00,,,0.00,Wunderground v.1.15,2014-01-20 13:20:00,
2014-01-20 08:25:00,57.9,54.1,30.19,SW,230,0.0,0.0,87,0.00,,,0.00,Wunderground v.1.15,2014-01-20 13:25:00,
2014-01-20 08:40:00,59.1,54.6,30.19,SW,230,0.0,0.0,85,0.00,,,0.00,Wunderground v.1.15,2014-01-20 13:40:00,
2014-01-20 08:50:00,60.8,55.9,30.20,SW,230,0.0,0.0,84,0.00,,,0.00,Wunderground v.1.15,2014-01-20 13:50:00,
2014-01-20 08:55:00,61.6,56.4,30.20,SW,231,0.0,0.0,83,0.00,,,0.00,Wunderground v.1.15,2014-01-20 13:55:00,
2014-01-20 09:05:00,63.2,56.6,30.20,SW,231,0.0,0.0,79,0.00,,,0.00,Wunderground v.1.15,2014-01-20 14:05:00,
2014-01-20 09:10:00,63.9,56.5,30.20,SW,231,0.0,0.0,77,0.00,,,0.00,Wunderground v.1.15,2014-01-20 14:10:00,
2014-01-20 09:15:00,64.7,56.6,30.20,SW,231,0.0,0.0,75,0.00,,,0.00,Wunderground v.1.15,2014-01-20 14:15:00,
2014-01-20 09:25:00,65.9,56.6,30.20,SW,231,0.0,0.0,72,0.00,,,0.00,Wunderground v.1.15,2014-01-20 14:25:00,
2014-01-20 09:30:00,66.4,56.3,30.20,SW,231,0.0,0.0,70,0.00,,,0.00,Wunderground v.1.15,2014-01-20 14:30:00,
2014-01-20 09:35:00,66.9,55.6,30.20,SW,231,0.0,0.0,67,0.00,,,0.00,Wunderground v.1.15,2014-01-20 14:35:00,
2014-01-20 09:40:00,67.0,54.4,30.20,SW,231,0.0,0.0,64,0.00,,,0.00,Wunderground v.1.15,2014-01-20 14:40:00,
2014-01-20 09:45:00,67.9,55.3,30.20,SW,231,0.0,0.0,64,0.00,,,0.00,Wunderground v.1.15,2014-01-20 14:45:00,
2014-01-20 09:55:00,68.5,54.1,30.20,SW,231,0.0,0.0,60,0.00,,,0.00,Wunderground v.1.15,2014-01-20 14:55:00,
2014-01-20 10:10:00,68.7,52.8,30.20,SW,230,0.0,0.0,57,0.00,,,0.00,Wunderground v.1.15,2014-01-20 15:10:00,
2014-01-20 10:15:00,69.0,53.6,30.19,SW,230,0.0,0.0,58,0.00,,,0.00,Wunderground v.1.15,2014-01-20 15:15:00,
2014-01-20 10:20:00,69.7,52.8,30.19,SW,230,0.0,0.0,55,0.00,,,0.00,Wunderground v.1.15,2014-01-20 15:20:00,
2014-01-20 10:25:00,70.1,53.2,30.20,SW,230,0.0,0.0,55,0.00,,,0.00,Wunderground v.1.15,2014-01-20 15:25:00,
2014-01-20 10:35:00,71.1,52.6,30.19,SW,230,0.0,0.0,52,0.00,,,0.00,Wunderground v.1.15,2014-01-20 15:35:00,
2014-01-20 10:40:00,69.4,51.5,30.19,SW,236,0.0,0.0,53,0.00,,,0.00,Wunderground v.1.15,2014-01-20 15:40:00,
2014-01-20 10:45:00,69.5,51.6,30.19,SW,236,0.0,2.0,53,0.00,,,0.00,Wunderground v.1.15,2014-01-20 15:45:00,
2014-01-20 10:50:00,69.1,51.8,30.19,WSW,237,1.0,1.0,54,0.00,,,0.00,Wunderground v.1.15,2014-01-20 15:50:00,
2014-01-20 10:55:00,69.1,52.2,30.19,WSW,238,1.0,3.0,55,0.00,,,0.00,Wunderground v.1.15,2014-01-20 15:55:00,
2014-01-20 11:05:00,69.3,52.4,30.18,WSW,244,1.0,2.0,55,0.00,,,0.00,Wunderground v.1.15,2014-01-20 16:05:00,
2014-01-20 11:10:00,69.4,52.0,30.18,WSW,245,2.0,3.0,54,0.00,,,0.00,Wunderground v.1.15,2014-01-20 16:10:00,
2014-01-20 11:15:00,69.7,51.8,30.18,WSW,253,3.0,6.0,53,0.00,,,0.00,Wunderground v.1.15,2014-01-20 16:15:00,
2014-01-20 11:20:00,70.0,52.1,30.17,WSW,256,4.0,4.0,53,0.00,,,0.00,Wunderground v.1.15,2014-01-20 16:20:00,
2014-01-20 11:25:00,69.9,52.0,30.17,West,273,5.0,8.0,53,0.00,,,0.00,Wunderground v.1.15,2014-01-20 16:25:00,
2014-01-20 11:30:00,69.8,51.9,30.17,West,273,5.0,5.0,53,0.00,,,0.00,Wunderground v.1.15,2014-01-20 16:30:00,
2014-01-20 11:40:00,70.3,51.8,30.16,West,274,3.0,3.0,52,0.00,,,0.00,Wunderground v.1.15,2014-01-20 16:40:00,
2014-01-20 11:45:00,70.1,51.7,30.16,West,277,3.0,4.0,52,0.00,,,0.00,Wunderground v.1.15,2014-01-20 16:45:00,
2014-01-20 11:50:00,70.7,52.2,30.16,West,277,3.0,3.0,52,0.00,,,0.00,Wunderground v.1.15,2014-01-20 16:50:00,
2014-01-20 11:55:00,72.0,52.9,30.16,West,277,3.0,3.0,51,0.00,,,0.00,Wunderground v.1.15,2014-01-20 16:55:00,
2014-01-20 12:05:00,72.6,52.3,30.15,West,279,2.0,2.0,49,0.00,,,0.00,Wunderground v.1.15,2014-01-20 17:05:00,
2014-01-20 12:15:00,72.5,52.8,30.14,West,279,3.0,3.0,50,0.00,,,0.00,Wunderground v.1.15,2014-01-20 17:15:00,
2014-01-20 12:20:00,72.8,52.5,30.14,West,279,2.0,2.0,49,0.00,,,0.00,Wunderground v.1.15,2014-01-20 17:20:00,
2014-01-20 12:30:00,73.9,52.4,30.13,West,279,2.0,2.0,47,0.00,,,0.00,Wunderground v.1.15,2014-01-20 17:30:00,
2014-01-20 12:40:00,74.0,52.5,30.13,West,279,2.0,7.0,47,0.00,,,0.00,Wunderground v.1.15,2014-01-20 17:40:00,
2014-01-20 12:45:00,74.5,52.9,30.12,West,279,4.0,7.0,47,0.00,,,0.00,Wunderground v.1.15,2014-01-20 17:45:00,
2014-01-20 12:55:00,73.7,52.2,30.11,West,281,5.0,7.0,47,0.00,,,0.00,Wunderground v.1.15,2014-01-20 17:55:00,
2014-01-20 13:05:00,73.8,52.3,30.11,West,281,3.0,8.0,47,0.00,,,0.00,Wunderground v.1.15,2014-01-20 18:05:00,
2014-01-20 13:10:00,73.1,52.2,30.10,West,281,4.0,8.0,48,0.00,,,0.00,Wunderground v.1.15,2014-01-20 18:10:00,
2014-01-20 13:15:00,72.9,52.6,30.10,West,281,3.0,3.0,49,0.00,,,0.00,Wunderground v.1.15,2014-01-20 18:15:00,
2014-01-20 13:25:00,74.1,52.6,30.10,WNW,282,2.0,8.0,47,0.00,,,0.00,Wunderground v.1.15,2014-01-20 18:25:00,
2014-01-20 13:30:00,73.5,52.6,30.09,WNW,282,5.0,8.0,48,0.00,,,0.00,Wunderground v.1.15,2014-01-20 18:30:00,
2014-01-20 13:35:00,73.6,52.7,30.09,WNW,282,6.0,8.0,48,0.00,,,0.00,Wunderground v.1.15,2014-01-20 18:35:00,
2014-01-20 13:40:00,74.1,53.2,30.09,WNW,282,5.0,8.0,48,0.00,,,0.00,Wunderground v.1.15,2014-01-20 18:40:00,
2014-01-20 13:45:00,74.9,53.3,30.08,WNW,283,4.0,8.0,47,0.00,,,0.00,Wunderground v.1.15,2014-01-20 18:45:00,
2014-01-20 13:55:00,75.8,53.5,30.08,WNW,284,5.0,8.0,46,0.00,,,0.00,Wunderground v.1.15,2014-01-20 18:55:00,
2014-01-20 14:00:00,74.6,52.4,30.07,WNW,286,5.0,5.0,46,0.00,,,0.00,Wunderground v.1.15,2014-01-20 19:00:00,
2014-01-20 14:10:00,73.6,52.1,30.07,WNW,286,5.0,5.0,47,0.00,,,0.00,Wunderground v.1.15,2014-01-20 19:10:00,
2014-01-20 14:15:00,74.6,53.0,30.07,WNW,286,4.0,7.0,47,0.00,,,0.00,Wunderground v.1.15,2014-01-20 19:15:00,
2014-01-20 14:20:00,74.5,52.9,30.07,WNW,287,5.0,5.0,47,0.00,,,0.00,Wunderground v.1.15,2014-01-20 19:20:00,
2014-01-20 14:30:00,75.1,52.9,30.07,WNW,288,5.0,5.0,46,0.00,,,0.00,Wunderground v.1.15,2014-01-20 19:30:00,
2014-01-20 14:35:00,74.9,52.1,30.07,WNW,288,5.0,6.0,45,0.00,,,0.00,Wunderground v.1.15,2014-01-20 19:35:00,
2014-01-20 14:45:00,73.8,52.9,30.07,WNW,288,5.0,9.0,48,0.00,,,0.00,Wunderground v.1.15,2014-01-20 19:45:00,
2014-01-20 14:50:00,74.6,53.6,30.07,WNW,288,3.0,3.0,48,0.00,,,0.00,Wunderground v.1.15,2014-01-20 19:50:00,
2014-01-20 14:55:00,75.5,52.7,30.07,WNW,288,4.0,8.0,45,0.00,,,0.00,Wunderground v.1.15,2014-01-20 19:55:00,
2014-01-20 15:00:00,75.9,53.6,30.07,WNW,296,7.0,13.0,46,0.00,,,0.00,Wunderground v.1.15,2014-01-20 20:00:00,
2014-01-20 15:10:00,76.3,53.4,30.07,WNW,296,7.0,7.0,45,0.00,,,0.00,Wunderground v.1.15,2014-01-20 20:10:00,
2014-01-20 15:15:00,76.9,53.3,30.06,WNW,296,6.0,10.0,44,0.00,,,0.00,Wunderground v.1.15,2014-01-20 20:15:00,
2014-01-20 15:20:00,76.6,53.7,30.06,WNW,295,6.0,6.0,45,0.00,,,0.00,Wunderground v.1.15,2014-01-20 20:20:00,
2014-01-20 15:25:00,76.8,53.8,30.06,WNW,295,5.0,8.0,45,0.00,,,0.00,Wunderground v.1.15,2014-01-20 20:25:00,
2014-01-20 15:35:00,74.5,52.9,30.07,WNW,285,9.0,12.0,47,0.00,,,0.00,Wunderground v.1.15,2014-01-20 20:35:00,
2014-01-20 15:40:00,74.6,53.6,30.07,WNW,292,8.0,13.0,48,0.00,,,0.00,Wunderground v.1.15,2014-01-20 20:40:00,
2014-01-20 15:45:00,74.4,54.0,30.07,West,277,8.0,13.0,49,0.00,,,0.00,Wunderground v.1.15,2014-01-20 20:45:00,
2014-01-20 15:55:00,74.2,53.8,30.07,WNW,296,8.0,13.0,49,0.00,,,0.00,Wunderground v.1.15,2014-01-20 20:55:00,
2014-01-20 16:00:00,73.6,53.8,30.07,WNW,293,8.0,10.0,50,0.00,,,0.00,Wunderground v.1.15,2014-01-20 21:00:00,
2014-01-20 16:10:00,73.2,54.0,30.07,WNW,296,8.0,9.0,51,0.00,,,0.00,Wunderground v.1.15,2014-01-20 21:10:00,
2014-01-20 16:15:00,72.8,53.6,30.08,WNW,297,8.0,12.0,51,0.00,,,0.00,Wunderground v.1.15,2014-01-20 21:15:00,
2014-01-20 16:20:00,73.0,53.8,30.07,WNW,297,8.0,8.0,51,0.00,,,0.00,Wunderground v.1.15,2014-01-20 21:20:00,
2014-01-20 16:25:00,73.4,54.2,30.07,WNW,294,8.0,10.0,51,0.00,,,0.00,Wunderground v.1.15,2014-01-20 21:25:00,
2014-01-20 16:30:00,73.0,53.8,30.08,WNW,291,9.0,9.0,51,0.00,,,0.00,Wunderground v.1.15,2014-01-20 21:30:00,
2014-01-20 16:35:00,72.8,54.1,30.08,WNW,296,9.0,9.0,52,0.00,,,0.00,Wunderground v.1.15,2014-01-20 21:35:00,
2014-01-20 16:45:00,73.4,54.2,30.08,WNW,292,8.0,9.0,51,0.00,,,0.00,Wunderground v.1.15,2014-01-20 21:45:00,
2014-01-20 16:50:00,73.1,54.4,30.08,WNW,295,9.0,9.0,52,0.00,,,0.00,Wunderground v.1.15,2014-01-20 21:50:00,
2014-01-20 16:55:00,72.9,54.2,30.08,WNW,296,8.0,9.0,52,0.00,,,0.00,Wunderground v.1.15,2014-01-20 21:55:00,
2014-01-20 17:00:00,72.8,54.1,30.08,WNW,295,7.0,10.0,52,0.00,,,0.00,Wunderground v.1.15,2014-01-20 22:00:00,
2014-01-20 17:10:00,72.6,54.5,30.08,WNW,295,8.0,8.0,53,0.00,,,0.00,Wunderground v.1.15,2014-01-20 22:10:00,
2014-01-20 17:20:00,71.8,54.3,30.08,WNW,294,7.0,10.0,54,0.00,,,0.00,Wunderground v.1.15,2014-01-20 22:20:00,
2014-01-20 17:25:00,71.4,54.4,30.08,WNW,294,7.0,10.0,55,0.00,,,0.00,Wunderground v.1.15,2014-01-20 22:25:00,
2014-01-20 17:30:00,71.1,54.6,30.08,WNW,293,7.0,7.0,56,0.00,,,0.00,Wunderground v.1.15,2014-01-20 22:30:00,
2014-01-20 17:35:00,71.1,55.1,30.08,WNW,293,5.0,10.0,57,0.00,,,0.00,Wunderground v.1.15,2014-01-20 22:35:00,
2014-01-20 17:40:00,71.1,55.1,30.08,WNW,293,3.0,3.0,57,0.00,,,0.00,Wunderground v.1.15,2014-01-20 22:40:00,
2014-01-20 17:50:00,70.9,54.9,30.08,WNW,293,1.0,1.0,57,0.00,,,0.00,Wunderground v.1.15,2014-01-20 22:50:00,
2014-01-20 17:55:00,70.7,55.2,30.08,WNW,293,1.0,2.0,58,0.00,,,0.00,Wunderground v.1.15,2014-01-20 22:55:00,
2014-01-20 18:00:00,70.3,54.8,30.08,WNW,293,2.0,2.0,58,0.00,,,0.00,Wunderground v.1.15,2014-01-20 23:00:00,
2014-01-20 18:10:00,69.9,54.9,30.09,WNW,293,1.0,1.0,59,0.00,,,0.00,Wunderground v.1.15,2014-01-20 23:10:00,
2014-01-20 18:15:00,69.6,55.1,30.08,WNW,293,1.0,5.0,60,0.00,,,0.00,Wunderground v.1.15,2014-01-20 23:15:00,
2014-01-20 18:20:00,69.3,55.3,30.08,WNW,293,1.0,5.0,61,0.00,,,0.00,Wunderground v.1.15,2014-01-20 23:20:00,
2014-01-20 18:25:00,69.0,55.0,30.08,WNW,293,2.0,5.0,61,0.00,,,0.00,Wunderground v.1.15,2014-01-20 23:25:00,
2014-01-20 18:30:00,68.8,55.7,30.09,WNW,293,3.0,5.0,63,0.00,,,0.00,Wunderground v.1.15,2014-01-20 23:30:00,
2014-01-20 18:35:00,68.5,55.4,30.09,WNW,293,3.0,5.0,63,0.00,,,0.00,Wunderground v.1.15,2014-01-20 23:35:00,
2014-01-20 18:40:00,68.3,55.2,30.09,WNW,293,4.0,4.0,63,0.00,,,0.00,Wunderground v.1.15,2014-01-20 23:40:00,
2014-01-20 18:45:00,68.2,55.1,30.09,WNW,293,4.0,5.0,63,0.00,,,0.00,Wunderground v.1.15,2014-01-20 23:45:00,
2014-01-20 18:55:00,67.9,55.3,30.10,WNW,293,4.0,5.0,64,0.00,,,0.00,Wunderground v.1.15,2014-01-20 23:55:00,
2014-01-20 19:00:00,67.7,55.5,30.10,WNW,293,4.0,5.0,65,0.00,,,0.00,Wunderground v.1.15,2014-01-21 00:00:00,
2014-01-20 19:10:00,67.5,55.3,30.09,WNW,293,3.0,3.0,65,0.00,,,0.00,Wunderground v.1.15,2014-01-21 00:10:00,
2014-01-20 19:15:00,67.5,55.3,30.08,WNW,293,1.0,4.0,65,0.00,,,0.00,Wunderground v.1.15,2014-01-21 00:15:00,
2014-01-20 19:20:00,67.5,55.3,30.09,WNW,293,0.0,4.0,65,0.00,,,0.00,Wunderground v.1.15,2014-01-21 00:20:00,
2014-01-20 19:30:00,67.3,55.1,30.09,WNW,293,0.0,4.0,65,0.00,,,0.00,Wunderground v.1.15,2014-01-21 00:30:00,
2014-01-20 19:40:00,67.1,55.4,30.09,WNW,293,0.0,4.0,66,0.00,,,0.00,Wunderground v.1.15,2014-01-21 00:40:00,
2014-01-20 19:45:00,66.9,55.6,30.09,WNW,293,0.0,4.0,67,0.00,,,0.00,Wunderground v.1.15,2014-01-21 00:45:00,
2014-01-20 19:50:00,66.6,55.3,30.09,WNW,293,0.0,4.0,67,0.00,,,0.00,Wunderground v.1.15,2014-01-21 00:50:00,
2014-01-20 19:55:00,66.4,55.5,30.09,WNW,293,0.0,4.0,68,0.00,,,0.00,Wunderground v.1.15,2014-01-21 00:55:00,
2014-01-20 20:00:00,66.2,55.7,30.09,WNW,293,0.0,0.0,69,0.00,,,0.00,Wunderground v.1.15,2014-01-21 01:00:00,
2014-01-20 20:10:00,65.8,55.7,30.08,WNW,293,0.0,0.0,70,0.00,,,0.00,Wunderground v.1.15,2014-01-21 01:10:00,
2014-01-20 20:15:00,65.6,55.5,30.09,WNW,293,0.0,0.0,70,0.00,,,0.00,Wunderground v.1.15,2014-01-21 01:15:00,
2014-01-20 20:20:00,65.4,55.7,30.09,WNW,293,0.0,0.0,71,0.00,,,0.00,Wunderground v.1.15,2014-01-21 01:20:00,
2014-01-20 20:25:00,65.2,55.6,30.09,WNW,293,0.0,0.0,71,0.00,,,0.00,Wunderground v.1.15,2014-01-21 01:25:00,
2014-01-20 20:30:00,65.1,55.5,30.09,WNW,293,0.0,0.0,71,0.00,,,0.00,Wunderground v.1.15,2014-01-21 01:30:00,
2014-01-20 20:40:00,64.9,55.7,30.10,WNW,293,0.0,0.0,72,0.00,,,0.00,Wunderground v.1.15,2014-01-21 01:40:00,
2014-01-20 20:45:00,64.7,55.5,30.10,WNW,293,0.0,0.0,72,0.00,,,0.00,Wunderground v.1.15,2014-01-21 01:45:00,
2014-01-20 20:50:00,64.6,55.4,30.10,WNW,293,0.0,0.0,72,0.00,,,0.00,Wunderground v.1.15,2014-01-21 01:50:00,
2014-01-20 20:55:00,64.5,55.7,30.10,WNW,293,0.0,0.0,73,0.00,,,0.00,Wunderground v.1.15,2014-01-21 01:55:00,
2014-01-20 21:01:00,64.3,55.5,30.10,WNW,293,0.0,0.0,73,0.00,,,0.00,Wunderground v.1.15,2014-01-21 02:01:00,
2014-01-20 21:10:00,64.0,55.5,30.09,WNW,293,0.0,0.0,74,0.00,,,0.00,Wunderground v.1.15,2014-01-21 02:10:00,
2014-01-20 21:15:00,63.9,55.4,30.10,WNW,293,0.0,0.0,74,0.00,,,0.00,Wunderground v.1.15,2014-01-21 02:15:00,
2014-01-20 21:20:00,63.7,55.6,30.09,WNW,293,0.0,0.0,75,0.00,,,0.00,Wunderground v.1.15,2014-01-21 02:20:00,
2014-01-20 21:30:00,63.4,55.7,30.09,WNW,293,0.0,0.0,76,0.00,,,0.00,Wunderground v.1.15,2014-01-21 02:30:00,
2014-01-20 21:35:00,63.2,55.5,30.10,WNW,293,0.0,0.0,76,0.00,,,0.00,Wunderground v.1.15,2014-01-21 02:35:00,
2014-01-20 21:40:00,63.2,55.5,30.10,WNW,293,0.0,0.0,76,0.00,,,0.00,Wunderground v.1.15,2014-01-21 02:40:00,
2014-01-20 21:50:00,63.1,55.8,30.11,WNW,293,0.0,0.0,77,0.00,,,0.00,Wunderground v.1.15,2014-01-21 02:50:00,
2014-01-20 21:55:00,63.1,55.8,30.11,WNW,293,0.0,0.0,77,0.00,,,0.00,Wunderground v.1.15,2014-01-21 02:55:00,
2014-01-20 22:00:00,63.1,55.8,30.11,WNW,293,0.0,0.0,77,0.00,,,0.00,Wunderground v.1.15,2014-01-21 03:00:00,
2014-01-20 22:10:00,63.0,56.0,30.10,WNW,293,0.0,0.0,78,0.00,,,0.00,Wunderground v.1.15,2014-01-21 03:10:00,
2014-01-20 22:15:00,63.0,56.0,30.10,WNW,293,0.0,0.0,78,0.00,,,0.00,Wunderground v.1.15,2014-01-21 03:15:00,
2014-01-20 22:25:00,62.9,56.3,30.10,WNW,293,0.0,0.0,79,0.00,,,0.00,Wunderground v.1.15,2014-01-21 03:25:00,
2014-01-20 22:30:00,62.8,56.2,30.10,WNW,293,0.0,0.0,79,0.00,,,0.00,Wunderground v.1.15,2014-01-21 03:30:00,
2014-01-20 22:35:00,62.7,56.1,30.10,WNW,293,0.0,0.0,79,0.00,,,0.00,Wunderground v.1.15,2014-01-21 03:35:00,
2014-01-20 22:40:00,62.7,56.1,30.10,WNW,293,0.0,0.0,79,0.00,,,0.00,Wunderground v.1.15,2014-01-21 03:40:00,
2014-01-20 22:50:00,62.7,56.4,30.10,WNW,293,0.0,0.0,80,0.00,,,0.00,Wunderground v.1.15,2014-01-21 03:50:00,
2014-01-20 23:00:00,62.6,56.3,30.10,WNW,293,0.0,0.0,80,0.00,,,0.00,Wunderground v.1.15,2014-01-21 04:00:00,
2014-01-20 23:10:00,62.7,56.4,30.09,WNW,292,0.0,1.0,80,0.00,,,0.00,Wunderground v.1.15,2014-01-21 04:10:00,
2014-01-20 23:15:00,62.7,56.4,30.09,WNW,292,0.0,1.0,80,0.00,,,0.00,Wunderground v.1.15,2014-01-21 04:15:00,
2014-01-20 23:20:00,62.7,56.8,30.09,WNW,292,0.0,0.0,81,0.00,,,0.00,Wunderground v.1.15,2014-01-21 04:20:00,
2014-01-20 23:25:00,62.8,56.9,30.09,WNW,292,0.0,0.0,81,0.00,,,0.00,Wunderground v.1.15,2014-01-21 04:25:00,
2014-01-20 23:35:00,62.9,57.0,30.08,WNW,292,0.0,0.0,81,0.00,,,0.00,Wunderground v.1.15,2014-01-21 04:35:00,
2014-01-20 23:40:00,62.8,56.9,30.08,WNW,292,0.0,0.0,81,0.00,,,0.00,Wunderground v.1.15,2014-01-21 04:40:00,
2014-01-20 23:45:00,62.9,57.0,30.08,WNW,292,0.0,0.0,81,0.00,,,0.00,Wunderground v.1.15,2014-01-21 04:45:00,
2014-01-20 23:50:00,62.9,57.0,30.08,WNW,292,0.0,0.0,81,0.00,,,0.00,Wunderground v.1.15,2014-01-21 04:50:00,
2014-01-20 23:55:00,62.9,57.0,30.08,WNW,292,0.0,0.0,81,0.00,,,0.00,Wunderground v.1.15,2014-01-21 04:55:00,